Terminal Aerodrome Forecast
Issued by NWS Portland, OR

Home | Current Version | Previous Version | Text Only | Print | Product List | Glossary On
Versions: 1 2 3 4 5 6 7 8 9 10 11 12 13 14 15
000
FTUS46 KPQR 252327
TAFSLE
TAF
KSLE 252327Z 2600/2624 VRB05KT P6SM SCT035 BKN040
     FM260700 30004KT P6SM OVC025
     FM261600 33005KT P6SM BKN040=

USA.gov is the U.S. government's official web portal to all federal, state and local government web resources and services.